Location: Castle
(40.7167°S, 175.9500°E)
Time: 02:09:54
(UTC+00:00)

Cosmos 1844 Rocket - Pass Details

Date: 04 August 2024
Orbit: 823 x 845 km, 71.0° (Epoch: 07 September)

Event Time Altitude Azimuth Distance (km) Brightness Sun altitude
Exits shadow 16:35:57 40° 163° (SSE) 1,242 3.6 -31.0°
Drops below altitude 10° 16:39:30 10° 158° (SSE) 2,489 5.4 -30.3°
Sets 16:41:58 0° 157° (SSE) 3,427 6.2 -29.8°
